Location: Ahausen
(50.4985°N, 8.2722°E)
Time: 13:15:16
(UTC+00:00)

JY1SAT - Pass Details

Date: 05 July 2022
Orbit: 564 x 586 km, 97.6° (Epoch: 08 August)

Event Time Altitude Azimuth Distance (km) Brightness Sun altitude
Exits shadow 22:05:20 - 219° (SW) 2,387 ? -14.3°
Reaches altitude 10° 22:07:03 10° 235° (SW) 1,913 ? -14.4°
Maximum altitude 22:09:29 15° 271° (W) 1,610 ? -14.6°
Drops below altitude 10° 22:11:55 10° 307° (NW) 1,919 ? -14.7°
Sets 22:14:56 0° 331° (NNW) 2,823 ? -14.8°
